Saipan, MP

6:50 PM ChST on April 28, 2017 (GMT +1000)
Saipan International

Weather History for PGSN - October, 2011

Change the Weather History Date:

Friday, October 7, 2011

  Actual Average Record
Temperature  
Mean Temperature 84 °F -  
Max Temperature 87 °F 84 °F 89 °F (2016)
Min Temperature 80 °F 76 °F 73 °F (2007)
Cooling Degree Days 18    
Growing Degree Days 34 (Base 50)    
Moisture  
Dew Point 77 °F    
Average Humidity 83    
Maximum Humidity 89    
Minimum Humidity 74    
Precipitation  
Precipitation 0.12 in - - ()
Sea Level Pressure  
Sea Level Pressure 29.95 in    
Wind  
Wind Speed 11 mph (East)    
Max Wind Speed 16 mph    
Max Gust Speed -    
Visibility 10 miles    
Events Rain    
Averages and records for this station are not official NWS values.
T = Trace of Precipitation, MM = Missing Value Source: NWS Daily Summary

Daily Weather History Graph

Daily Weather History Graph

Search for Another Location

Airport or City:

Trip Planner

Search our weather history database for the weather conditions in past years. The results will help you decide how hot, cold, wet, or windy it might be!

Date:

Astronomy

Oct. 07, 2011 Rise Set
Actual Time 6:07 AM ChST 6:02 PM ChST
Civil Twilight 5:45 AM ChST 6:24 PM ChST
Nautical Twilight 5:21 AM ChST 6:49 PM ChST
Astronomical Twilight 4:56 AM ChST 7:13 PM ChST
Moon 2:49 PM ChST (10/7) 1:59 AM ChST (10/7)
Length of Visible Light 12h 38m
Length of Day
11h 55m
Waxing Gibbous, 78% of the Moon is Illuminated
Oct 7
Waxing Gibbous
Oct 12
Full
Oct 20
Last Quarter
Oct 27
New
Nov 3
First Quarter

Hourly Weather History & Observations

Time (ChST) Temp. Heat Index Dew Point Humidity Pressure Visibility Wind Dir Wind Speed Gust Speed Precip Events Conditions
12:54 AM 81.0 °F 87.9 °F 77.0 °F 88% 29.93 in 10.0 mi East 8.1 mph - N/A   Scattered Clouds
1:54 AM 81.0 °F 87.3 °F 75.9 °F 85% 29.91 in 10.0 mi East 10.4 mph - N/A   Partly Cloudy
2:54 AM 81.0 °F 87.3 °F 75.9 °F 85% 29.91 in 10.0 mi East 10.4 mph - N/A   Partly Cloudy
3:54 AM 81.0 °F 87.3 °F 75.9 °F 85% 29.91 in 10.0 mi ESE 11.5 mph - 0.00 in Rain Light Rain
4:54 AM 81.0 °F 87.9 °F 77.0 °F 88% 29.90 in 10.0 mi East 12.7 mph - N/A   Scattered Clouds
5:54 AM 81.0 °F 87.9 °F 77.0 °F 88% 29.91 in 10.0 mi East 11.5 mph - N/A   Mostly Cloudy
6:54 AM 80.6 °F 87.1 °F 77.0 °F 89% 29.92 in 10.0 mi ENE 9.2 mph - N/A   Partly Cloudy
7:54 AM 82.4 °F 92.4 °F 78.8 °F 89% 29.93 in 10.0 mi ENE 12.7 mph - N/A   Partly Cloudy
8:54 AM 84.2 °F 96.1 °F 78.8 °F 84% 29.95 in 10.0 mi ENE 12.7 mph - N/A   Scattered Clouds
9:54 AM 86.0 °F 99.3 °F 78.8 °F 79% 29.94 in 10.0 mi ENE 16.1 mph - N/A   Scattered Clouds
10:54 AM 87.1 °F 99.8 °F 78.1 °F 74% 30.00 in 10.0 mi East 15.0 mph - N/A   Scattered Clouds
11:33 AM 84.2 °F 96.1 °F 78.8 °F 84% 29.92 in 2.0 mi East 11.5 mph - 0.08 in Rain Heavy Rain
11:42 AM 84.2 °F 96.1 °F 78.8 °F 84% 29.91 in 10.0 mi East 11.5 mph - 0.08 in   Partly Cloudy
11:54 AM 84.9 °F 97.5 °F 79.0 °F 82% 29.97 in 10.0 mi ENE 10.4 mph - 0.08 in   Scattered Clouds
12:54 PM 86.0 °F 98.3 °F 78.1 °F 77% 29.95 in 10.0 mi East 16.1 mph - 0.01 in   Partly Cloudy
1:54 PM 86.0 °F 98.3 °F 78.1 °F 77% 29.94 in 10.0 mi ENE 15.0 mph - N/A   Partly Cloudy
2:54 PM 84.9 °F 96.6 °F 78.1 °F 80% 29.93 in 10.0 mi ENE 12.7 mph - N/A   Mostly Cloudy
3:54 PM 84.9 °F 96.6 °F 78.1 °F 80% 29.93 in 10.0 mi ENE 12.7 mph - N/A   Mostly Cloudy
4:54 PM 84.0 °F 93.7 °F 77.0 °F 79% 29.95 in 10.0 mi East 11.5 mph - N/A   Mostly Cloudy
5:54 PM 82.0 °F 89.4 °F 75.9 °F 82% 29.96 in 10.0 mi East 9.2 mph - N/A   Mostly Cloudy
6:54 PM 82.0 °F 90.2 °F 77.0 °F 85% 29.97 in 10.0 mi East 8.1 mph - N/A   Mostly Cloudy
7:54 PM 82.0 °F 90.2 °F 77.0 °F 85% 29.99 in 10.0 mi East 9.2 mph - N/A   Mostly Cloudy
8:54 PM 82.0 °F 89.4 °F 75.9 °F 82% 30.01 in 10.0 mi East 9.2 mph - N/A   Mostly Cloudy
9:54 PM 82.0 °F 89.4 °F 75.9 °F 82% 30.02 in 10.0 mi East 11.5 mph - 0.00 in   Mostly Cloudy
10:54 PM 82.0 °F 89.4 °F 75.9 °F 82% 30.01 in 10.0 mi East 10.4 mph - N/A   Mostly Cloudy
11:54 PM 80.1 °F 85.4 °F 75.9 °F 87% 30.00 in 10.0 mi East 9.2 mph - 0.03 in   Scattered Clouds